SCP
0 0 0 0 -0 0 0 0 0 0 0 0 0 0 0 0 0 0 0 0 0 0 0 0 0 0 0 0 0 0 -0 -0 -0 -0 -0 -0 0 -0 -0 -0 -0 0 0 -0
0 0 0 0 0 0 0 0 0 0 0 0 0 0 0 0 0 0 0 0 0 0 0 0 0 0 0 0 0 -0 -0 -0 -0 -0 -0 -0 0 0 0 -0 -0 -0 -0 -0
0 0 0 0 0 0 0 0 0 0 0 0 0 0 0 0 0 0 0 0 0 0 0 0 0 0 0 0 -0 -0 -0 -0 -0 -0 -0 -0 -0 -0 0 -0 0 -0 -0 -0
0 0 0 0 0 0 0 0 0 0 0 0 0 0 0 0 0 0 0 0 0 0 0 0 0 0 0 0 0 -0 -0 0 -0 -0 -0 -0 -0 -0 0 -0 -0 0 -0 -0
0 0 0 0 0 0 0 0 0 0 0 0 0 0 0 0 0 0 0 0 0 0 0 0 0 0 0 0 -0 -0 -0 -0 -0 -0 -0 -0 0 0 0 0 0 -0 -0 -0
0 0 0 0 0 0 0 0 0 0 0 0 0 0 0 0 0 0 0 0 0 0 0 0 0 0 0 0 0 -0 -0 -0 -0 -0 -0 -0 0 -0 -0 -0 -0 -0 0 0
0 0 0 0 0 0 0 0 0 0 0 0 0 0 0 0 0 0 0 0 0 0 0 0 0 0 0 0 -0 -0 -0 -0 -0 -0 -0 -0 -0 0 -0 -0 -0 -0 0 0
0 0 0 0 0 0 0 0 0 0 0 0 0 0 0 0 0 0 0 0 0 0 0 0 0 0 0 0 -0 -0 -0 -0 -0 0 -0 -0 0 0 0 -0 0 0 -0 -0
0 0 0 0 0 0 0 0 0 0 0 0 0 0 0 0 0 0 0 0 0 0 0 0 0 0 0 0 -0 -0 -0 -0 -0 -0 0 0 0 -0 0 -0 -0 -0 -0 0
0 0 0 0 0 0 0 0 0 0 0 0 0 0 0 0 0 0 0 0 0 0 0 0 0 0 0 0 -0 -0 -0 -0 -0 0 0 -0 0 -0 0 0 -0 -0 0 0
0 0 0 0 -0 0 0 0 0 0 0 0 0 0 0 0 0 0 0 0 0 0 0 0 0 0 0 0 0 -0 -0 0 0 -0 -0 0 -0 0 -0 0 0 -0 0 -0
0 0 -0 0 0 0 0 0 0 0 0 0 0 0 0 0 0 0 0 0 0 0 0 0 0 0 0 0 0 0 0 0 0 -0 -0 0 0 0 0 0 0 0 0 -0
0 0 0 0 0 0 0 0 0 0 0 0 0 0 0 0 0 0 0 0 0 0 0 0 0 0 0 0 0 -0 -0 -0 0 0 0 0 0 0 0 0 0 0 0 0
0 0 0 0 0 0 0 0 0 0 0 0 0 0 0 0 0 0 0 0 0 0 0 0 0 0 0 0 -0 0 -0 -0 -0 0 0 0 -0 -0 0 0 0 0 0 0
0 0 0 0 0 0 0 0 0 0 0 0 0 0 0 -0 0 0 0 0 0 0 0 0 0 0 0 0 0 0 0 0 0 0 -0 -0 -0 0 0 0 0 0 0 0
0 0 0 0 0 0 0 0 0 0 0 0 0 0 0 0 0 -0 0 0 0 0 0 0 0 0 0 0 0 0 0 0 -0 -0 -0 -0 -0 0 0 0 0 0 -0 -0
0 0 0 0 0 0 0 0 0 0 0 0 0 -0 0 0 0 0 0 0 0 0 0 0 0 0 0 0 0 0 0 0 0 -0 -0 -0 -0 -0 0 -0 -0 -0 -0 0
0 0 0 0 0 0 0 0 0 0 0 0 0 0 0 0 -0 -0 -0 0 0 0 0 0 0 0 0 0 0 0 0 0 0 0 0 -0 -0 -0 -0 -0 -0 -0 -0 0
0 0 0 0 0 0 0 0 0 0 0 0 0 0 -0 0 0 0 0 -0 0 0 0 0 0 0 0 0 0 0 0 0 0 0 0 -0 -0 0 0 -0 -0 -0 0 0
0 0 0 0 0 0 0 0 0 0 0 0 0 0 0 0 0 0 0 0 -0 0 0 0 0 0 0 0 0 0 0 0 0 0 0 -0 0 0 0 0 -0 -0 -0 -0
0 0 0 0 0 0 0 0 0 0 0 0 0 0 0 0 0 0 0 0 0 -0 0 0 0 0 0 0 0 0 0 0 0 0 -0 -0 -0 0 0 0 0 0 -0 0
0 0 0 0 0 0 0 0 0 0 0 0 0 0 0 0 0 0 0 0 0 0 0 0 -0 -0 0 0 0 0 0 0 0 0 0 0 0 0 0 0 0 -0 0 0
0 0 0 0 0 0 0 0 0 0 0 0 0 0 0 0 0 0 0 0 0 0 0 0 -0 -0 0 0 -0 -0 -0 -0 0 -0 -0 0 0 0 0 0 0 0 0 0
0 0 0 0 0 0 0 0 0 0 0 0 0 0 0 0 0 0 0 0 0 0 0 0 0 -0 -0 -0 0 0 0 0 0 0 0 0 0 0 0 0 0 0 0 0
0 0 0 0 0 0 0 0 0 0 0 0 0 0 0 0 0 0 0 0 0 0 0 0 0 0 0 0 -0 -0 0 0 -0 -0 -0 0 0 0 0 0 0 0 0 0
0 0 0 0 0 0 0 0 0 0 0 0 0 0 0 0 0 0 0 0 0 0 0 0 0 0 0 0 0 0 0 0 0 -0 -0 0 0 0 0 0 0 0 0 0
0 0 0 0 0 0 0 0 0 0 0 0 0 0 0 0 0 0 0 -0 0 0 0 0 0 0 0 0 0 0 0 0 0 0 0 0 0 0 0 0 0 0 0 0
Wind_Speed_500mb
52 50 49 49 47 45 39 22 4 14 15 2 4 4 9 7 8 8 6 6 9 7 5 10 8 10 8 7 14 18 7 9 12 37 25 5 7 19 10 10 8 10 4 5
59 57 56 56 55 53 48 19 9 13 17 5 3 1 6 7 9 8 7 9 15 7 7 9 12 12 15 27 14 11 13 7 14 12 5 8 12 10 15 21 12 8 6 5
67 65 62 62 60 57 49 17 5 7 10 7 11 9 7 4 9 6 8 7 6 6 11 15 12 15 16 25 19 17 13 8 16 21 30 30 22 34 34 8 10 14 7 13
75 73 69 66 65 61 51 17 8 12 7 8 8 6 12 7 7 11 10 6 16 11 9 12 11 9 26 18 3 25 10 11 13 27 37 29 31 26 26 6 13 9 11 14
84 77 74 70 70 67 52 20 14 12 8 15 15 4 11 14 6 12 10 13 4 18 14 15 17 18 16 15 13 24 11 7 14 15 12 23 14 21 28 17 13 11 16 9
88 86 80 74 78 78 35 33 26 17 15 10 7 8 10 15 16 14 12 14 6 17 30 33 38 32 31 35 23 18 9 11 9 9 26 30 2 25 20 11 26 15 10 10
104 91 86 79 84 88 47 54 36 14 7 14 10 9 15 16 22 4 4 14 9 6 19 41 29 25 30 29 31 28 12 15 7 11 19 8 9 14 10 3 27 28 21 19
103 98 92 83 83 92 66 50 38 16 7 14 11 15 11 10 11 9 12 17 19 22 18 8 11 5 4 4 12 12 21 8 8 7 9 11 5 12 10 11 13 16 24 21
109 101 93 84 85 94 82 44 44 25 24 18 11 16 16 7 6 4 9 9 10 3 4 4 4 5 2 8 16 6 12 17 9 3 6 4 4 13 14 6 10 31 33 24
96 90 84 81 91 93 87 54 48 29 12 18 27 11 12 15 8 3 5 5 5 7 2 1 4 4 1 5 5 3 5 4 10 8 5 11 9 34 14 5 10 38 33 30
79 113 93 91 95 93 89 62 48 37 12 30 28 18 12 14 11 5 11 5 4 3 3 4 2 4 2 5 7 5 7 5 5 1 5 3 22 11 11 8 17 19 25 31
77 101 103 98 97 95 96 65 55 42 18 17 26 26 22 20 12 10 16 3 6 6 4 4 3 6 3 2 6 5 7 7 5 11 7 6 26 8 19 13 16 15 22 27
88 108 105 102 94 93 95 68 64 45 18 10 18 16 23 24 23 23 9 8 10 7 8 7 1 9 6 6 11 5 8 7 6 6 4 4 8 18 17 15 12 15 20 23
107 118 107 106 98 94 94 72 64 50 19 9 10 20 14 19 21 22 23 14 10 8 7 2 3 5 6 5 6 6 4 6 6 10 20 19 8 10 15 13 9 10 11 10
107 120 115 107 100 94 85 66 58 53 19 11 9 11 14 11 4 5 8 11 9 7 3 3 5 6 4 3 5 10 19 12 13 9 6 4 2 7 10 16 20 16 6 6
126 119 114 104 98 97 81 31 50 59 39 5 4 8 7 6 6 8 9 11 12 8 6 6 6 5 3 4 6 17 35 29 33 7 18 14 9 8 8 8 15 17 15 10
119 119 112 106 95 94 75 22 28 64 43 11 9 5 9 13 11 11 10 10 7 10 6 7 5 5 5 5 7 12 20 33 31 29 22 22 23 12 7 11 14 13 7 4
123 122 117 97 92 82 48 21 47 66 38 12 7 2 8 21 10 8 11 6 10 10 5 4 5 5 7 11 36 29 13 15 29 34 30 26 18 14 16 13 9 10 8 5
130 117 104 94 82 57 38 30 65 54 16 16 12 10 7 23 11 9 11 9 5 5 5 4 3 4 12 23 29 19 32 25 16 25 35 34 30 28 24 14 11 8 11 12
135 122 83 34 49 59 46 24 24 19 17 9 8 18 7 21 15 12 11 7 3 4 3 1 5 9 54 45 32 17 18 22 19 21 20 22 19 18 20 16 9 7 11 17
133 49 21 76 83 61 11 14 13 16 6 19 20 21 15 23 8 8 13 5 5 3 3 4 3 8 14 12 18 35 41 33 27 25 19 8 9 19 22 17 13 16 18 23
96 64 99 82 26 12 9 6 2 8 14 24 27 16 18 21 13 10 10 6 3 5 4 2 6 9 18 23 20 19 20 21 22 21 23 13 11 25 21 19 18 20 25 31
107 73 17 23 9 10 22 21 9 7 26 31 30 13 18 16 13 12 5 8 6 8 3 7 10 7 26 31 27 24 23 22 21 22 29 18 16 27 22 21 24 28 35 40
22 16 15 13 14 15 10 10 13 18 28 69 66 25 12 12 8 6 8 2 3 2 4 12 6 37 40 36 30 28 27 26 22 31 34 28 25 31 28 28 32 37 42 41
16 19 15 13 13 13 33 44 46 33 80 87 38 22 10 6 8 2 8 5 9 12 10 7 16 42 45 40 35 31 31 32 39 35 30 29 33 38 34 37 40 43 42 39
19 14 11 17 20 6 26 38 42 73 98 70 13 10 7 5 10 9 16 14 14 8 8 14 33 49 46 39 33 30 33 39 42 35 37 37 40 39 39 43 45 42 36 32
15 7 16 26 39 37 48 49 57 99 89 11 11 11 11 12 5 6 10 11 7 9 18 23 40 46 41 36 34 37 45 50 47 44 43 43 44 44 45 47 48 43 38 32
Wind_Direction_500mb
217 211 203 194 189 183 180 171 166 181 171 70 44 142 191 168 193 198 226 245 257 269 261 273 270 267 255 325 344 314 306 290 282 287 315 303 286 275 238 259 334 250 306 284
216 210 202 195 191 188 177 167 151 174 178 181 158 255 247 204 193 198 197 225 218 214 280 292 229 268 271 311 339 322 344 290 296 295 180 197 301 267 245 276 249 247 257 1
213 209 202 197 192 188 182 160 146 150 187 160 135 170 206 207 213 230 221 242 199 221 266 233 274 289 301 326 327 313 299 256 284 300 301 302 297 307 297 259 282 321 9 300
211 207 201 197 193 189 182 174 186 164 168 211 165 166 162 162 203 212 223 238 217 194 273 284 243 274 306 301 9 349 338 267 279 288 284 282 308 306 312 313 304 335 326 328
211 202 200 196 193 188 188 176 162 134 104 141 139 197 207 197 210 195 219 228 209 205 239 231 290 304 304 284 307 338 335 275 314 287 251 299 308 355 357 351 347 342 311 360
210 200 197 196 194 188 191 198 166 149 151 152 163 209 193 209 183 223 227 220 244 248 257 268 272 272 268 272 297 308 295 321 312 273 324 318 82 357 352 344 10 319 342 333
212 199 196 198 196 197 197 193 169 139 164 195 208 201 189 209 207 249 214 204 202 263 298 302 280 265 264 263 264 253 280 307 284 312 325 26 357 34 34 339 15 1 342 345
212 204 195 194 198 198 201 199 189 159 135 189 196 192 194 220 229 241 249 246 243 286 324 308 320 325 326 276 262 262 233 281 305 315 305 299 357 13 17 353 14 1 339 348
224 200 191 194 198 199 200 200 194 191 135 218 157 164 195 205 195 269 230 237 247 291 56 37 320 302 318 320 333 253 236 232 276 324 317 314 14 326 322 242 12 6 359 357
220 202 198 200 196 198 199 196 200 191 166 160 164 169 181 179 161 235 232 175 154 175 144 196 231 272 306 296 281 283 282 229 254 286 279 292 301 312 306 60 335 337 357 4
223 207 199 195 192 195 194 195 198 192 174 173 190 190 177 170 182 190 164 141 193 92 190 211 179 233 202 276 255 224 218 228 245 164 260 285 5 1 50 328 331 330 2 16
223 203 190 185 187 194 194 191 191 191 183 176 194 207 218 217 207 212 183 206 163 181 107 208 144 226 220 244 286 193 253 229 304 216 263 10 340 355 331 326 303 340 359 8
217 202 187 184 187 193 194 190 190 185 168 151 180 207 219 229 235 223 228 214 200 188 192 170 117 246 158 222 235 273 235 233 248 311 260 272 341 349 348 320 294 315 330 352
211 194 186 185 184 193 191 190 193 189 168 164 199 213 223 236 245 238 227 229 198 180 182 188 206 243 195 259 307 246 255 179 207 260 286 301 83 24 7 3 350 315 328 2
213 191 185 182 179 189 188 194 197 196 199 152 143 178 212 245 194 162 185 185 173 201 171 200 240 264 274 275 284 242 192 198 203 220 212 235 221 19 27 34 38 30 7 0
190 184 180 177 180 186 176 175 207 202 202 159 126 169 172 167 156 201 196 193 206 198 196 223 247 257 247 281 256 255 216 217 216 240 237 246 262 295 311 3 11 20 30 41
191 182 176 177 181 181 170 184 191 194 193 186 106 132 171 173 174 198 208 204 209 209 225 220 232 223 221 251 251 263 229 232 229 232 244 265 256 250 254 315 332 339 319 28
184 172 171 171 175 174 180 173 168 174 173 183 119 77 157 167 162 186 193 181 194 211 248 224 223 237 223 250 242 238 218 226 231 232 236 244 267 259 244 265 302 312 255 123
168 164 163 165 165 166 167 151 163 167 180 174 163 161 169 164 162 162 171 178 209 224 240 185 201 219 230 225 235 229 221 222 226 228 235 255 266 239 241 265 276 253 188 150
157 156 148 146 159 158 147 124 157 180 226 217 149 141 133 154 161 170 152 177 230 235 236 180 225 259 257 251 237 215 198 197 198 185 216 247 249 233 226 224 221 179 141 134
147 148 137 139 141 143 131 139 161 195 227 204 170 172 137 177 143 160 193 158 148 231 156 227 242 270 243 215 212 219 223 231 228 229 238 221 216 186 179 171 145 136 142 144
156 150 132 129 129 136 149 172 152 207 210 171 148 149 131 142 157 124 155 138 148 231 138 214 254 249 211 178 168 169 183 198 207 209 196 179 148 158 152 151 148 143 143 142
134 124 124 137 157 152 186 184 216 200 167 160 152 133 137 131 161 100 141 155 199 133 187 237 235 238 188 182 184 193 194 194 195 193 180 172 162 163 153 155 154 150 148 145
134 130 141 186 183 220 182 161 162 174 151 150 143 117 130 131 110 144 133 90 155 161 261 235 235 201 181 182 185 191 189 185 184 174 182 193 183 174 171 162 158 156 154 152
127 145 198 191 164 148 168 153 138 140 150 145 125 91 124 93 107 62 117 99 237 216 229 232 202 176 180 181 183 183 180 175 167 166 171 172 169 167 168 162 159 160 162 160
155 166 114 142 129 112 151 153 136 149 149 148 132 117 104 164 139 141 212 157 219 231 214 205 175 176 178 179 178 173 170 167 166 163 159 159 160 163 164 163 162 165 168 168
155 181 184 165 143 160 159 167 157 156 153 151 135 129 179 114 120 225 196 207 222 220 190 173 174 177 177 177 175 170 165 165 166 162 159 160 161 162 166 167 164 165 167 169
Wind_Speed_850mb
52 50 49 49 47 45 39 22 4 14 15 2 4 4 9 7 8 8 6 6 9 7 5 10 8 10 8 7 14 18 7 9 12 37 25 5 7 19 10 10 8 10 4 5
59 57 56 56 55 53 48 19 9 13 17 5 3 1 6 7 9 8 7 9 15 7 7 9 12 12 15 27 14 11 13 7 14 12 5 8 12 10 15 21 12 8 6 5
67 65 62 62 60 57 49 17 5 7 10 7 11 9 7 4 9 6 8 7 6 6 11 15 12 15 16 25 19 17 13 8 16 21 30 30 22 34 34 8 10 14 7 13
75 73 69 66 65 61 51 17 8 12 7 8 8 6 12 7 7 11 10 6 16 11 9 12 11 9 26 18 3 25 10 11 13 27 37 29 31 26 26 6 13 9 11 14
84 77 74 70 70 67 52 20 14 12 8 15 15 4 11 14 6 12 10 13 4 18 14 15 17 18 16 15 13 24 11 7 14 15 12 23 14 21 28 17 13 11 16 9
88 86 80 74 78 78 35 33 26 17 15 10 7 8 10 15 16 14 12 14 6 17 30 33 38 32 31 35 23 18 9 11 9 9 26 30 2 25 20 11 26 15 10 10
104 91 86 79 84 88 47 54 36 14 7 14 10 9 15 16 22 4 4 14 9 6 19 41 29 25 30 29 31 28 12 15 7 11 19 8 9 14 10 3 27 28 21 19
103 98 92 83 83 92 66 50 38 16 7 14 11 15 11 10 11 9 12 17 19 22 18 8 11 5 4 4 12 12 21 8 8 7 9 11 5 12 10 11 13 16 24 21
109 101 93 84 85 94 82 44 44 25 24 18 11 16 16 7 6 4 9 9 10 3 4 4 4 5 2 8 16 6 12 17 9 3 6 4 4 13 14 6 10 31 33 24
96 90 84 81 91 93 87 54 48 29 12 18 27 11 12 15 8 3 5 5 5 7 2 1 4 4 1 5 5 3 5 4 10 8 5 11 9 34 14 5 10 38 33 30
79 113 93 91 95 93 89 62 48 37 12 30 28 18 12 14 11 5 11 5 4 3 3 4 2 4 2 5 7 5 7 5 5 1 5 3 22 11 11 8 17 19 25 31
77 101 103 98 97 95 96 65 55 42 18 17 26 26 22 20 12 10 16 3 6 6 4 4 3 6 3 2 6 5 7 7 5 11 7 6 26 8 19 13 16 15 22 27
88 108 105 102 94 93 95 68 64 45 18 10 18 16 23 24 23 23 9 8 10 7 8 7 1 9 6 6 11 5 8 7 6 6 4 4 8 18 17 15 12 15 20 23
107 118 107 106 98 94 94 72 64 50 19 9 10 20 14 19 21 22 23 14 10 8 7 2 3 5 6 5 6 6 4 6 6 10 20 19 8 10 15 13 9 10 11 10
107 120 115 107 100 94 85 66 58 53 19 11 9 11 14 11 4 5 8 11 9 7 3 3 5 6 4 3 5 10 19 12 13 9 6 4 2 7 10 16 20 16 6 6
126 119 114 104 98 97 81 31 50 59 39 5 4 8 7 6 6 8 9 11 12 8 6 6 6 5 3 4 6 17 35 29 33 7 18 14 9 8 8 8 15 17 15 10
119 119 112 106 95 94 75 22 28 64 43 11 9 5 9 13 11 11 10 10 7 10 6 7 5 5 5 5 7 12 20 33 31 29 22 22 23 12 7 11 14 13 7 4
123 122 117 97 92 82 48 21 47 66 38 12 7 2 8 21 10 8 11 6 10 10 5 4 5 5 7 11 36 29 13 15 29 34 30 26 18 14 16 13 9 10 8 5
130 117 104 94 82 57 38 30 65 54 16 16 12 10 7 23 11 9 11 9 5 5 5 4 3 4 12 23 29 19 32 25 16 25 35 34 30 28 24 14 11 8 11 12
135 122 83 34 49 59 46 24 24 19 17 9 8 18 7 21 15 12 11 7 3 4 3 1 5 9 54 45 32 17 18 22 19 21 20 22 19 18 20 16 9 7 11 17
133 49 21 76 83 61 11 14 13 16 6 19 20 21 15 23 8 8 13 5 5 3 3 4 3 8 14 12 18 35 41 33 27 25 19 8 9 19 22 17 13 16 18 23
96 64 99 82 26 12 9 6 2 8 14 24 27 16 18 21 13 10 10 6 3 5 4 2 6 9 18 23 20 19 20 21 22 21 23 13 11 25 21 19 18 20 25 31
107 73 17 23 9 10 22 21 9 7 26 31 30 13 18 16 13 12 5 8 6 8 3 7 10 7 26 31 27 24 23 22 21 22 29 18 16 27 22 21 24 28 35 40
22 16 15 13 14 15 10 10 13 18 28 69 66 25 12 12 8 6 8 2 3 2 4 12 6 37 40 36 30 28 27 26 22 31 34 28 25 31 28 28 32 37 42 41
16 19 15 13 13 13 33 44 46 33 80 87 38 22 10 6 8 2 8 5 9 12 10 7 16 42 45 40 35 31 31 32 39 35 30 29 33 38 34 37 40 43 42 39
19 14 11 17 20 6 26 38 42 73 98 70 13 10 7 5 10 9 16 14 14 8 8 14 33 49 46 39 33 30 33 39 42 35 37 37 40 39 39 43 45 42 36 32
15 7 16 26 39 37 48 49 57 99 89 11 11 11 11 12 5 6 10 11 7 9 18 23 40 46 41 36 34 37 45 50 47 44 43 43 44 44 45 47 48 43 38 32
Wind_Direction_850mb
217 211 203 194 189 183 180 171 166 181 171 70 44 142 191 168 193 198 226 245 257 269 261 273 270 267 255 325 344 314 306 290 282 287 315 303 286 275 238 259 334 250 306 284
216 210 202 195 191 188 177 167 151 174 178 181 158 255 247 204 193 198 197 225 218 214 280 292 229 268 271 311 339 322 344 290 296 295 180 197 301 267 245 276 249 247 257 1
213 209 202 197 192 188 182 160 146 150 187 160 135 170 206 207 213 230 221 242 199 221 266 233 274 289 301 326 327 313 299 256 284 300 301 302 297 307 297 259 282 321 9 300
211 207 201 197 193 189 182 174 186 164 168 211 165 166 162 162 203 212 223 238 217 194 273 284 243 274 306 301 9 349 338 267 279 288 284 282 308 306 312 313 304 335 326 328
211 202 200 196 193 188 188 176 162 134 104 141 139 197 207 197 210 195 219 228 209 205 239 231 290 304 304 284 307 338 335 275 314 287 251 299 308 355 357 351 347 342 311 360
210 200 197 196 194 188 191 198 166 149 151 152 163 209 193 209 183 223 227 220 244 248 257 268 272 272 268 272 297 308 295 321 312 273 324 318 82 357 352 344 10 319 342 333
212 199 196 198 196 197 197 193 169 139 164 195 208 201 189 209 207 249 214 204 202 263 298 302 280 265 264 263 264 253 280 307 284 312 325 26 357 34 34 339 15 1 342 345
212 204 195 194 198 198 201 199 189 159 135 189 196 192 194 220 229 241 249 246 243 286 324 308 320 325 326 276 262 262 233 281 305 315 305 299 357 13 17 353 14 1 339 348
224 200 191 194 198 199 200 200 194 191 135 218 157 164 195 205 195 269 230 237 247 291 56 37 320 302 318 320 333 253 236 232 276 324 317 314 14 326 322 242 12 6 359 357
220 202 198 200 196 198 199 196 200 191 166 160 164 169 181 179 161 235 232 175 154 175 144 196 231 272 306 296 281 283 282 229 254 286 279 292 301 312 306 60 335 337 357 4
223 207 199 195 192 195 194 195 198 192 174 173 190 190 177 170 182 190 164 141 193 92 190 211 179 233 202 276 255 224 218 228 245 164 260 285 5 1 50 328 331 330 2 16
223 203 190 185 187 194 194 191 191 191 183 176 194 207 218 217 207 212 183 206 163 181 107 208 144 226 220 244 286 193 253 229 304 216 263 10 340 355 331 326 303 340 359 8
217 202 187 184 187 193 194 190 190 185 168 151 180 207 219 229 235 223 228 214 200 188 192 170 117 246 158 222 235 273 235 233 248 311 260 272 341 349 348 320 294 315 330 352
211 194 186 185 184 193 191 190 193 189 168 164 199 213 223 236 245 238 227 229 198 180 182 188 206 243 195 259 307 246 255 179 207 260 286 301 83 24 7 3 350 315 328 2
213 191 185 182 179 189 188 194 197 196 199 152 143 178 212 245 194 162 185 185 173 201 171 200 240 264 274 275 284 242 192 198 203 220 212 235 221 19 27 34 38 30 7 0
190 184 180 177 180 186 176 175 207 202 202 159 126 169 172 167 156 201 196 193 206 198 196 223 247 257 247 281 256 255 216 217 216 240 237 246 262 295 311 3 11 20 30 41
191 182 176 177 181 181 170 184 191 194 193 186 106 132 171 173 174 198 208 204 209 209 225 220 232 223 221 251 251 263 229 232 229 232 244 265 256 250 254 315 332 339 319 28
184 172 171 171 175 174 180 173 168 174 173 183 119 77 157 167 162 186 193 181 194 211 248 224 223 237 223 250 242 238 218 226 231 232 236 244 267 259 244 265 302 312 255 123
168 164 163 165 165 166 167 151 163 167 180 174 163 161 169 164 162 162 171 178 209 224 240 185 201 219 230 225 235 229 221 222 226 228 235 255 266 239 241 265 276 253 188 150
157 156 148 146 159 158 147 124 157 180 226 217 149 141 133 154 161 170 152 177 230 235 236 180 225 259 257 251 237 215 198 197 198 185 216 247 249 233 226 224 221 179 141 134
147 148 137 139 141 143 131 139 161 195 227 204 170 172 137 177 143 160 193 158 148 231 156 227 242 270 243 215 212 219 223 231 228 229 238 221 216 186 179 171 145 136 142 144
156 150 132 129 129 136 149 172 152 207 210 171 148 149 131 142 157 124 155 138 148 231 138 214 254 249 211 178 168 169 183 198 207 209 196 179 148 158 152 151 148 143 143 142
134 124 124 137 157 152 186 184 216 200 167 160 152 133 137 131 161 100 141 155 199 133 187 237 235 238 188 182 184 193 194 194 195 193 180 172 162 163 153 155 154 150 148 145
134 130 141 186 183 220 182 161 162 174 151 150 143 117 130 131 110 144 133 90 155 161 261 235 235 201 181 182 185 191 189 185 184 174 182 193 183 174 171 162 158 156 154 152
127 145 198 191 164 148 168 153 138 140 150 145 125 91 124 93 107 62 117 99 237 216 229 232 202 176 180 181 183 183 180 175 167 166 171 172 169 167 168 162 159 160 162 160
155 166 114 142 129 112 151 153 136 149 149 148 132 117 104 164 139 141 212 157 219 231 214 205 175 176 178 179 178 173 170 167 166 163 159 159 160 163 164 163 162 165 168 168
155 181 184 165 143 160 159 167 157 156 153 151 135 129 179 114 120 225 196 207 222 220 190 173 174 177 177 177 175 170 165 165 166 162 159 160 161 162 166 167 164 165 167 169